This demonstration page uses our WeatherBlox Daily Observations layout. Learn more.

Left ArrowRight Arrow

Hourly Observations for November 28, 2021

Temp ( °F °C ) Dew Point ( °F °C ) Humidity (%) Winds ( mph kmh ) Pressure ( in mb ) Visibility ( mi km ) Precip ( " mm )
12:51 am 00:51 Clear 40 4.4 26 -3.3 58 58 ESE 7 11 30.19 1022 10 16 N/A
1:51 am 01:51 Clear 42 5.6 27 -2.8 55 55 SSE 9 15 30.19 1022 10 16 N/A
2:51 am 02:51 Clear 39 3.9 27 -2.8 62 62 SSE 8 13 30.21 1023 10 16 N/A
3:51 am 03:51 Clear 35 1.7 25 -3.9 67 67 W 5 7 30.22 1024 10 16 N/A
4:51 am 04:51 Clear 35 1.7 26 -3.3 70 70 NE 5 7 30.23 1024 10 16 N/A
5:51 am 05:51 Clear 37 2.8 26 -3.3 65 65 ESE 8 13 30.25 1024 10 16 N/A
6:51 am 06:51 Clear 43 6.1 27 -2.8 53 53 SE 9 15 30.26 1025 10 16 N/A
7:51 am 07:51 Sunny 43 6.1 26 -3.3 51 51 SE 10 17 30.31 1026 10 16 N/A
8:51 am 08:51 Sunny 53 11.7 27 -2.8 37 37 SE 10 17 30.29 1026 10 16 N/A
9:51 am 09:51 Sunny 59 15 27 -2.8 29 29 ESE 13 20 30.29 1026 10 16 N/A
10:51 am 10:51 Sunny 62 16.7 27 -2.8 26 26 SE 9 15 30.29 1026 10 16 N/A
11:51 am 11:51 Sunny 64 17.8 29 -1.7 27 27 ESE 7 11 30.25 1025 10 16 N/A
12:51 pm 12:51 Sunny 67 19.4 28 -2.2 23 23 VRB 6 9 30.22 1023 10 16 N/A
1:51 pm 13:51 Sunny 69 20.6 27 -2.8 21 21 S 9 15 30.18 1022 10 16 N/A
2:51 pm 14:51 Sunny 70 21.1 26 -3.3 19 19 SSE 6 9 30.16 1021 10 16 N/A
3:51 pm 15:51 Sunny 70 21.1 26 -3.3 19 19 SSW 6 9 30.16 1021 10 16 N/A
4:51 pm 16:51 Sunny 68 20 26 -3.3 21 21 S 3 6 30.16 1021 10 16 N/A
5:51 pm 17:51 Clear 57 13.9 23 -5 27 27 N N/A 30.19 1022 10 16 N/A
6:51 pm 18:51 Clear 53 11.7 23 -5 31 31 E 6 9 30.20 1023 10 16 N/A
7:51 pm 19:51 Clear 53 11.7 23 -5 31 31 ESE 5 7 30.21 1023 10 16 N/A
8:51 pm 20:51 Clear 51 10.6 23 -5 33 33 ESE 7 11 30.21 1023 10 16 N/A
9:51 pm 21:51 Clear 50 10 24 -4.4 36 36 SSE 7 11 30.20 1023 10 16 N/A
10:51 pm 22:51 Clear 51 10.6 25 -3.9 36 36 SE 8 13 30.19 1022 10 16 N/A
11:51 pm 23:51 Clear 52 11.1 25 -3.9 35 35 SE 10 17 30.19 1022 10 16 N/A

Powered by AerisWeather